Theta_e
347 353 349 343 341 342 340 339 337 341 342 342 342 342 344 344 344 343 343 344 344 344 343 344 343 343 342 341 340 340 339 341 342 341 342 341 340 339 338 337 337 336 336 334 329 329 330 330 330 330 330 330 329 329 329 329 329 329 329 330 330 331 331 331 333 335 336 337 338 336 336 337 337 335 333 333 333 334 335 334 334 334 334 334 334
348 352 349 342 341 343 340 340 338 342 342 342 342 342 344 343 343 342 343 344 344 344 344 344 344 344 343 342 339 338 338 339 339 339 341 342 341 341 341 339 337 336 335 332 329 330 331 330 331 331 332 332 332 331 329 329 329 329 329 330 330 330 331 332 333 334 334 335 336 334 333 334 336 335 332 331 331 332 333 333 334 335 334 335 334
349 352 350 343 341 343 340 339 338 342 341 342 341 341 343 341 341 342 343 343 345 344 344 344 343 344 342 338 334 334 334 334 335 337 340 341 342 342 341 338 337 334 332 332 330 331 331 331 333 333 333 333 333 332 331 330 329 329 329 329 330 330 331 333 335 336 335 336 336 336 334 333 333 334 335 333 333 333 332 333 334 335 334 334 335
352 350 349 345 342 342 340 338 338 341 341 342 341 341 342 339 339 340 341 342 343 343 343 344 343 344 338 333 334 335 334 334 334 336 338 341 342 342 340 338 337 334 332 335 334 331 331 333 334 334 333 332 332 332 332 332 331 329 329 329 329 330 331 334 335 336 336 337 337 337 337 336 335 334 336 336 336 335 335 335 336 335 333 334 334
351 349 349 346 344 343 340 339 337 340 341 341 341 341 340 337 335 337 338 339 342 342 343 342 341 340 335 334 338 336 336 338 337 337 339 341 342 341 341 339 340 338 337 340 336 331 332 334 334 333 333 331 331 331 332 332 332 330 329 329 329 330 331 334 336 336 337 337 337 337 336 337 337 335 336 336 336 335 335 335 336 336 335 334 334
350 350 349 347 347 345 340 339 336 339 341 341 341 340 339 335 333 334 333 335 338 338 341 341 339 336 333 335 339 337 337 339 339 338 339 341 341 340 341 340 340 340 340 341 339 335 334 334 333 333 333 332 331 331 331 331 332 331 330 329 329 329 330 334 337 337 338 338 337 337 335 335 338 337 336 336 335 335 334 334 335 336 336 336 335
350 350 349 347 348 346 342 341 337 338 341 341 340 338 336 332 332 332 331 331 332 335 339 341 339 338 337 337 339 337 336 339 340 340 338 340 340 340 341 340 340 340 341 341 341 338 334 334 333 333 332 332 331 331 330 330 332 332 331 330 330 329 330 335 338 338 339 339 337 337 335 335 337 337 336 337 336 336 335 334 334 335 336 336 336
349 349 348 347 348 346 343 341 338 337 340 340 336 334 331 329 331 331 332 330 327 330 335 338 339 339 340 339 339 338 337 339 341 340 338 339 340 340 340 340 339 340 341 340 341 339 334 333 333 332 332 332 331 330 329 329 331 333 331 330 330 329 332 337 338 338 339 339 338 338 337 336 337 337 335 337 337 337 337 337 335 335 335 335 336
349 348 347 348 348 345 342 342 339 337 339 338 331 329 329 330 332 332 332 329 326 324 327 334 337 339 338 337 340 340 338 340 341 339 337 338 340 340 339 339 339 340 340 340 340 339 334 332 332 331 331 331 331 331 329 329 331 333 332 331 330 330 333 338 339 339 339 339 337 338 339 336 337 337 335 337 337 336 336 337 337 335 335 335 336
349 348 348 349 348 343 343 342 338 338 340 337 328 327 330 332 333 333 331 329 326 321 324 332 336 337 337 337 339 340 339 340 341 338 337 339 339 339 339 339 338 339 339 339 340 337 333 331 332 331 331 330 330 330 328 329 331 332 332 331 331 331 334 338 340 339 338 339 337 337 337 337 338 337 336 337 337 335 334 334 335 335 336 336 335
348 348 348 350 348 342 343 341 338 340 342 338 328 327 332 333 334 333 331 328 325 325 330 334 336 338 337 338 337 339 341 341 340 337 337 339 339 339 339 339 339 339 338 338 339 335 330 331 331 330 330 330 330 328 327 329 331 332 332 332 331 332 336 338 340 338 337 339 339 338 337 337 338 336 336 337 336 334 334 335 335 335 335 335 335
347 348 348 349 347 342 343 341 338 341 342 340 329 327 333 333 334 333 331 328 326 331 336 336 337 338 338 337 337 339 341 341 341 337 337 340 339 339 339 339 338 339 338 338 339 334 329 330 330 329 329 329 329 327 327 329 331 332 332 332 332 334 336 337 339 338 336 338 339 338 337 338 337 335 336 337 336 335 336 336 335 335 335 335 334
348 349 349 349 347 342 342 340 339 342 342 341 332 327 333 334 334 334 331 327 328 333 336 337 337 337 337 337 337 338 339 341 341 337 337 339 339 340 339 337 337 338 338 338 339 333 328 329 329 328 328 327 327 325 326 330 331 331 332 332 333 335 336 337 339 338 337 339 339 337 337 339 336 334 336 337 336 336 336 335 335 335 334 334 334
348 349 350 349 347 342 342 341 339 341 342 342 336 330 332 334 334 334 332 328 329 333 335 337 337 336 337 337 337 338 338 340 340 338 338 339 339 339 338 336 335 337 338 337 335 329 328 328 327 327 326 326 324 323 326 330 331 331 332 332 333 335 336 338 338 337 337 338 339 338 338 339 335 335 336 337 337 336 335 335 334 334 334 334 333
347 348 348 348 346 343 342 341 339 342 343 342 340 333 332 335 335 335 333 330 330 332 334 337 337 337 338 338 337 337 339 340 339 338 338 339 339 338 338 336 335 335 337 335 331 328 328 327 327 326 325 324 321 322 326 330 332 332 332 333 334 335 337 338 337 336 337 338 338 338 338 337 335 335 336 336 336 336 335 334 334 334 334 333 332
347 347 348 347 346 344 343 341 339 342 344 343 342 336 334 336 337 335 335 334 331 330 332 335 337 338 338 338 337 338 338 340 340 339 338 337 337 337 337 335 334 334 335 332 329 328 328 327 326 325 324 322 320 320 326 331 331 332 333 333 334 335 337 338 337 336 336 337 338 338 339 336 335 336 336 337 336 335 335 334 334 333 333 332 331
347 347 347 346 345 345 343 342 340 342 344 343 343 338 335 338 339 337 337 337 333 330 330 333 336 337 337 337 338 337 337 339 340 339 336 334 334 335 335 334 333 334 334 330 328 329 327 327 326 325 323 321 319 320 326 331 332 332 333 334 334 335 337 338 337 337 336 337 337 338 339 337 336 337 337 337 336 335 335 334 333 332 331 331 331
345 346 346 345 345 344 344 343 340 341 344 343 343 340 337 338 339 338 338 339 336 333 330 331 334 337 338 338 338 338 338 339 339 339 337 334 334 333 332 332 332 334 332 329 329 329 327 327 326 325 323 320 320 321 327 331 332 332 333 334 334 335 338 338 337 337 338 337 337 339 338 336 336 337 337 337 336 335 335 334 333 332 331 331 331
344 346 345 344 345 344 344 343 341 342 344 344 344 341 338 338 339 339 338 340 338 335 332 330 332 336 337 337 338 339 340 340 339 339 338 337 336 334 331 329 331 334 331 329 329 328 327 327 326 325 323 320 320 322 327 331 332 332 333 334 334 336 338 337 336 337 339 338 338 338 337 336 336 337 337 336 335 335 335 334 333 332 331 331 330
343 346 345 344 344 344 344 344 343 342 343 345 344 342 340 338 340 340 339 340 339 337 334 331 330 333 336 338 337 339 340 340 339 339 339 338 337 336 333 328 331 334 331 329 329 328 328 327 326 325 322 320 321 323 327 331 332 333 334 334 335 338 339 336 335 337 339 339 338 338 336 336 336 337 336 336 335 335 334 333 332 331 330 329 327
344 345 345 344 344 343 343 344 344 343 343 345 346 344 341 339 340 340 339 339 340 338 336 334 333 332 333 336 337 338 339 339 339 339 339 339 338 337 335 329 330 334 332 329 328 328 328 327 327 325 323 321 320 322 326 330 332 333 334 335 336 339 338 336 336 338 338 338 337 336 336 336 336 337 336 335 335 334 333 332 331 330 328 323 319
345 345 345 344 343 343 343 344 345 344 344 344 346 346 342 340 341 341 340 340 340 339 338 337 337 334 333 334 336 336 337 338 338 339 340 339 338 338 336 332 330 333 333 329 328 328 327 327 327 325 324 321 321 326 329 330 332 333 334 335 338 338 336 336 336 337 337 338 337 335 336 336 336 336 335 335 335 334 333 332 330 329 322 313 310
345 345 345 344 344 342 342 344 344 345 345 344 346 346 344 342 343 343 341 340 341 340 340 339 337 336 334 333 334 335 335 336 336 339 339 338 338 337 337 335 332 332 332 330 328 328 328 327 327 325 324 321 324 333 335 334 333 333 335 336 338 338 337 336 336 336 337 338 337 335 336 336 336 336 335 335 334 333 332 330 330 324 312 304 302
345 345 345 344 344 343 342 343 344 345 345 345 346 346 345 343 344 344 343 342 342 341 341 340 336 335 335 333 334 335 335 334 334 337 338 337 338 337 337 336 334 332 330 330 329 328 327 327 327 325 324 322 326 335 335 337 338 335 336 337 338 338 337 337 337 338 337 337 336 335 335 335 335 335 335 334 333 332 331 331 328 316 303 300 300
344 345 345 344 345 343 343 343 344 346 346 345 345 346 345 344 344 344 344 343 343 342 341 339 336 335 335 334 334 335 335 334 333 335 337 337 338 337 337 336 336 334 330 332 333 329 328 328 327 326 325 325 328 332 331 336 338 336 336 336 338 338 336 336 337 338 337 336 336 334 334 334 334 334 334 334 332 330 330 329 320 306 299 300 301
345 345 345 345 344 344 343 343 345 346 346 345 344 345 345 344 344 344 344 344 343 343 341 337 335 335 336 335 334 334 335 335 334 334 336 338 338 337 337 336 335 335 331 333 336 332 328 329 329 327 326 328 329 330 330 332 334 333 334 336 338 338 336 335 335 337 337 335 335 334 334 334 334 334 333 332 331 330 328 321 309 301 300 301 301
348 347 346 346 345 345 344 343 345 345 345 344 343 345 345 343 343 344 344 343 343 342 340 336 335 335 335 335 334 335 335 336 335 335 336 336 337 336 336 335 335 337 333 332 336 334 330 329 331 329 328 330 329 329 330 331 332 332 333 336 339 339 337 336 334 336 336 335 334 333 333 332 333 333 332 331 329 326 320 312 306 304 305 306 306
349 348 347 346 345 345 344 343 345 345 344 344 343 343 345 344 343 344 343 343 343 342 339 336 335 335 335 335 335 336 337 337 336 335 336 335 336 336 335 335 336 337 333 331 336 336 331 330 331 331 330 330 329 329 330 331 332 332 333 337 339 338 337 335 334 334 334 335 334 332 332 332 332 332 331 329 325 319 314 313 313 312 313 312 311
350 349 347 345 344 344 344 343 344 345 344 343 342 341 343 344 343 344 343 343 343 342 338 335 335 335 336 336 336 337 337 338 337 336 337 336 336 336 336 336 336 337 334 332 336 335 332 332 331 331 330 329 328 330 330 331 332 331 334 338 338 337 336 336 334 333 333 334 333 331 331 330 328 328 327 324 320 317 317 317 317 316 315 312 311
350 349 348 346 345 343 343 343 343 344 344 343 342 341 341 343 344 343 343 343 342 341 338 334 335 336 337 337 337 338 338 338 339 338 338 338 338 337 338 337 337 338 336 335 336 334 333 332 332 331 329 328 329 331 331 331 332 332 336 338 338 337 336 336 334 333 332 332 331 330 329 327 325 324 323 321 319 319 320 319 317 316 314 312 311
350 349 347 346 345 343 342 342 343 344 344 343 342 341 341 341 343 343 343 343 342 341 338 335 336 337 337 338 338 338 339 338 339 339 339 339 339 338 339 338 338 339 336 334 336 336 334 332 332 330 328 328 329 332 331 331 334 335 337 338 337 337 336 335 334 333 332 331 330 329 326 323 323 323 322 322 321 321 321 320 317 316 315 314 313
350 349 347 346 344 343 342 342 343 343 343 343 341 341 341 340 343 342 342 342 341 340 337 336 338 336 337 338 338 339 339 339 339 339 339 339 339 338 338 338 337 337 334 335 336 335 334 333 332 331 330 330 330 332 333 334 336 336 337 337 336 336 335 334 333 332 332 330 329 328 326 324 321 320 320 320 321 322 322 320 318 317 318 317 316
350 350 348 346 345 344 343 342 343 342 342 344 342 341 340 340 342 341 342 341 341 340 336 337 337 335 336 337 338 338 338 339 339 339 338 337 337 336 336 336 336 334 333 336 336 334 334 334 334 334 333 332 332 334 335 336 337 337 336 336 336 334 333 333 332 332 331 330 329 328 327 326 323 319 317 317 319 320 321 320 319 319 319 318 318
351 350 348 347 345 344 343 341 343 343 342 343 342 341 340 341 341 341 342 341 341 339 336 337 336 334 337 338 337 336 336 338 339 338 337 336 335 336 335 334 334 333 333 337 336 334 334 334 335 335 335 335 335 337 338 337 337 337 335 335 335 333 332 332 331 332 331 329 328 327 327 326 325 323 319 317 317 319 320 320 320 319 318 318 318
351 350 349 347 346 344 343 342 342 342 342 342 342 341 340 341 340 340 341 341 341 338 337 337 334 335 338 337 336 335 335 338 338 338 338 337 336 336 336 334 335 334 334 336 336 335 335 335 336 337 338 338 338 337 338 337 337 336 335 335 334 333 332 331 331 331 330 328 327 326 325 324 323 323 322 320 319 320 320 320 318 317 317 317 317
351 350 350 348 346 345 344 343 341 341 342 342 342 341 340 340 340 339 340 341 340 337 337 337 333 335 338 336 336 336 337 339 338 339 341 340 339 339 339 340 340 339 339 339 339 339 339 339 339 339 340 339 338 337 337 337 337 335 334 335 334 332 332 331 331 330 328 326 325 324 323 322 322 322 322 321 321 319 317 318 318 317 317 317 317
351 351 350 348 347 345 344 344 342 342 342 341 341 341 340 340 339 339 339 340 340 338 337 337 332 335 337 335 338 338 339 340 340 341 343 342 342 341 342 344 344 343 343 343 342 342 341 342 342 341 340 339 337 337 337 337 337 336 334 335 333 332 332 331 331 329 328 325 323 323 322 321 319 319 320 321 321 318 315 315 316 317 316 316 316
351 351 350 349 348 346 345 344 343 342 342 342 342 341 340 339 339 338 339 340 340 338 338 337 332 334 337 336 339 340 339 341 340 341 343 342 343 343 344 344 344 344 344 343 343 343 342 342 343 342 340 338 336 336 336 336 336 335 335 334 333 332 331 331 331 330 327 324 322 322 321 319 315 314 317 320 321 318 315 311 309 310 309 311 314
352 352 351 350 348 346 345 345 344 343 343 342 342 341 340 339 338 338 340 340 339 339 339 337 332 333 337 337 339 340 340 340 340 341 342 342 343 343 345 344 343 343 343 343 343 343 343 344 344 343 341 339 337 336 336 336 336 335 335 334 333 332 332 331 331 329 326 323 321 321 320 318 315 314 316 318 319 319 318 312 308 309 306 304 308
353 352 352 350 349 347 345 345 344 344 344 343 343 342 341 339 339 338 339 340 339 339 339 338 333 331 336 338 339 340 340 339 339 340 342 342 342 342 344 344 342 343 343 343 343 343 344 345 344 342 341 340 337 335 336 336 336 334 333 333 332 331 331 331 331 329 326 323 321 320 320 317 315 314 313 315 317 318 318 315 312 313 310 303 300
354 353 352 351 350 348 346 346 345 344 344 343 343 342 341 340 339 338 338 339 339 339 339 339 334 330 333 338 339 340 339 339 339 340 341 343 342 341 342 343 342 342 343 342 342 344 344 342 341 340 340 339 337 335 336 336 335 333 332 332 331 331 330 330 330 328 326 324 321 321 320 317 315 313 312 313 314 315 316 315 314 314 312 307 302
354 353 353 352 351 349 347 346 346 345 345 344 343 343 341 340 338 338 338 339 339 339 339 339 336 330 331 337 339 340 339 339 339 339 341 343 342 341 341 343 343 342 343 343 342 343 342 340 339 338 338 338 338 336 335 335 334 332 332 332 331 330 330 330 330 329 326 324 322 322 320 318 316 314 313 312 311 311 312 313 313 312 311 309 306
353 353 353 352 351 350 348 347 346 346 345 344 343 343 341 339 339 339 339 339 340 340 339 340 338 333 333 337 340 340 339 340 339 339 341 342 342 341 341 342 343 342 342 342 343 343 342 340 338 338 337 337 338 337 335 334 334 334 333 332 332 331 330 330 330 329 327 325 323 322 321 318 316 314 313 311 310 310 310 311 311 310 310 310 309
353 352 352 352 351 350 348 348 347 346 345 344 344 343 341 340 339 339 340 340 340 340 340 340 340 337 336 337 340 340 340 339 339 339 340 342 342 342 341 343 343 342 341 342 344 344 342 340 339 338 337 336 337 337 336 335 335 334 334 333 332 331 331 331 331 329 327 325 323 322 321 319 316 314 313 311 311 310 310 310 310 310 310 310 310
353 352 352 352 351 350 349 348 348 347 346 345 344 343 342 340 341 340 340 341 341 341 341 341 341 340 337 337 338 340 339 339 339 339 339 341 342 342 341 343 343 342 342 342 344 344 342 341 339 338 337 337 336 337 337 337 335 334 334 333 332 331 331 331 331 330 328 326 324 322 321 320 317 315 313 312 312 311 310 310 310 311 310 310 310
353 351 352 352 352 350 349 349 349 348 347 346 345 344 343 342 342 342 341 342 342 342 342 342 342 341 339 337 337 338 339 338 339 339 339 340 341 342 342 342 342 341 341 342 343 344 343 341 339 338 337 336 336 337 338 337 336 335 333 333 333 333 332 330 329 329 327 326 324 323 321 320 318 315 314 313 312 311 311 310 310 311 311 310 310
354 352 352 352 351 350 350 349 349 349 348 347 346 345 344 343 343 342 341 342 343 343 342 342 343 342 340 338 337 337 339 339 339 340 339 340 341 341 342 342 341 341 341 341 343 344 342 341 340 338 337 336 336 336 337 337 337 335 334 334 333 334 332 330 330 329 328 326 324 323 322 320 319 317 315 314 313 312 311 311 311 311 310 310 310
353 353 352 352 351 350 350 349 350 349 348 347 346 346 345 344 344 343 342 342 342 343 343 343 343 343 341 339 338 339 340 340 340 340 340 340 341 341 342 342 341 342 342 341 343 343 342 340 340 338 337 337 335 335 335 337 337 336 335 334 333 333 332 331 331 331 330 328 325 323 322 321 320 318 317 315 314 312 312 311 311 311 311 311 311
352 352 351 351 351 350 349 349 349 349 349 348 347 346 346 346 345 343 343 342 342 343 343 343 343 343 342 340 339 340 340 340 341 340 340 341 341 341 342 342 341 342 342 341 341 342 341 341 339 338 337 337 335 334 336 338 337 336 335 334 333 332 331 330 330 330 331 330 328 325 323 322 320 320 318 317 315 313 312 312 311 310 311 311 311
352 353 351 350 350 350 348 348 348 348 349 348 347 347 347 347 346 345 344 343 343 343 343 343 343 343 343 341 341 341 341 341 341 340 340 341 341 341 341 341 342 342 341 341 341 342 341 340 340 339 337 336 336 335 336 336 335 334 334 333 332 331 330 329 329 329 329 330 329 326 325 323 322 321 319 317 316 314 313 312 311 310 311 311 311
353 354 353 352 351 350 349 348 347 348 349 349 348 348 348 348 347 346 346 345 344 344 344 343 343 343 343 343 343 342 341 341 341 340 340 341 341 342 341 341 341 342 341 341 341 341 341 340 339 338 337 337 337 337 336 335 334 333 333 333 331 330 330 330 330 329 328 329 329 328 327 325 323 324 321 318 317 315 314 312 311 311 311 311 311
Wind_Speed
21 22 25 26 24 22 19 18 18 18 16 16 15 15 15 15 15 16 17 16 15 15 14 13 13 11 11 11 11 12 12 13 12 14 15 13 12 13 13 13 14 14 15 16 17 18 18 18 19 19 19 18 18 17 17 17 17 17 17 17 17 16 17 17 17 16 16 15 15 16 17 16 16 17 18 17 17 17 17 17 17 17 18 18 18
23 24 26 27 26 22 21 19 19 18 17 16 16 16 15 16 16 16 17 16 15 15 14 14 13 12 11 11 12 12 12 12 12 15 16 14 12 12 13 13 14 14 15 16 17 17 18 19 19 18 17 17 16 16 15 15 15 15 15 16 16 15 15 15 16 16 16 16 16 17 19 18 16 17 17 17 17 17 17 18 18 17 17 17 18
25 24 26 28 27 23 22 20 19 19 18 17 16 17 15 16 17 16 17 16 15 14 14 13 13 11 11 12 13 12 11 11 12 15 16 15 13 12 12 13 14 15 15 16 16 17 18 18 17 16 16 16 15 14 14 13 13 14 14 14 14 14 13 14 15 14 13 14 14 16 19 19 18 16 16 16 16 16 16 18 19 18 17 17 17
26 25 26 27 26 24 22 21 20 19 19 18 17 17 16 16 16 16 16 16 15 14 13 13 13 12 13 14 13 12 11 11 12 15 16 15 13 11 11 13 14 15 16 16 15 17 18 17 15 15 15 15 14 13 12 12 11 12 12 13 13 12 12 14 15 13 11 10 11 12 14 16 17 16 14 15 15 15 16 16 17 18 18 16 16
26 26 26 26 25 23 23 22 21 20 20 19 18 17 16 16 16 15 15 16 15 15 14 13 13 13 14 15 12 12 11 11 13 14 16 16 13 11 11 13 14 15 16 15 15 16 17 15 14 13 14 13 13 12 11 10 9 10 10 11 11 11 11 13 15 13 11 9 9 8 11 14 15 15 14 14 14 14 15 15 15 16 17 16 16
26 26 27 26 24 23 23 22 22 21 20 19 19 18 17 17 16 15 15 15 15 16 16 13 13 13 14 14 12 12 11 12 13 14 16 17 13 11 12 13 14 15 15 14 13 14 15 14 13 12 12 11 11 10 9 8 7 8 9 9 10 10 10 11 13 12 10 8 7 7 10 14 13 14 13 13 14 14 15 15 14 14 14 14 14
26 27 27 26 24 23 24 23 22 22 21 19 19 19 19 18 16 15 14 14 14 16 18 16 14 13 13 13 12 12 12 13 15 14 15 16 12 12 13 13 14 14 15 13 12 12 13 14 12 11 10 10 9 9 7 7 6 6 8 8 8 9 10 11 12 11 10 8 7 9 11 13 13 13 12 12 12 13 14 13 13 12 12 13 13
24 26 26 26 24 25 25 23 23 23 21 20 20 20 19 19 17 15 14 13 13 15 18 18 17 15 13 12 12 11 11 14 16 13 13 15 14 13 13 13 13 14 14 13 12 11 13 13 11 10 10 9 8 7 6 5 5 6 7 7 7 8 9 10 10 10 10 8 8 10 11 12 13 13 12 11 11 11 11 12 13 12 11 13 12
23 25 25 25 25 27 26 24 24 23 22 21 22 21 20 19 17 16 14 13 12 13 17 19 19 16 14 14 13 12 11 14 15 13 13 16 15 14 13 13 13 13 13 13 11 10 12 12 10 10 9 8 7 6 5 4 3 6 7 7 7 7 8 8 8 8 6 7 10 10 10 11 12 13 12 11 11 10 9 10 12 11 11 11 12
23 24 23 23 26 28 27 25 24 24 22 22 23 22 20 19 17 15 14 12 11 12 16 20 20 17 15 14 14 12 12 14 14 14 16 17 16 15 14 13 13 13 13 12 11 11 13 11 10 9 8 7 6 5 4 3 2 6 7 7 6 6 7 7 7 7 6 7 10 11 11 12 12 13 11 11 11 10 9 9 10 11 11 12 12
23 23 21 21 24 28 28 25 25 24 22 21 23 22 20 18 16 15 13 12 12 13 16 19 19 17 15 15 15 13 12 13 13 15 18 17 16 15 14 14 13 13 13 11 10 12 13 11 9 8 7 6 5 4 3 2 3 6 7 7 5 5 5 5 6 6 6 6 8 10 12 13 13 12 11 11 11 10 10 10 11 11 12 12 12
22 21 21 22 24 27 27 25 26 24 21 21 23 21 19 19 17 15 12 12 13 15 15 16 17 17 16 15 16 15 11 12 13 16 19 17 16 15 14 14 14 13 12 11 9 11 13 10 9 7 6 5 4 3 2 2 4 7 8 6 5 5 4 5 4 4 6 6 8 10 11 13 12 12 12 10 10 10 10 11 11 11 12 12 12
22 20 21 24 24 27 27 25 26 23 21 21 22 21 19 19 17 15 13 12 13 15 16 15 16 17 17 16 16 15 12 12 14 16 17 16 15 14 13 12 13 13 12 11 10 11 12 10 8 7 6 5 4 3 2 3 5 8 8 7 6 5 5 5 3 1 5 7 8 10 11 13 11 11 11 10 9 9 10 10 10 11 11 12 12
22 21 22 23 23 27 26 25 26 23 21 20 21 20 18 19 17 15 13 13 13 14 17 16 16 17 16 16 16 16 14 14 15 16 16 16 15 13 12 11 12 12 11 10 11 12 11 9 8 6 6 5 4 3 3 4 6 8 7 7 5 6 4 4 3 1 3 7 8 10 11 12 11 10 10 9 9 9 10 10 10 11 11 12 12
21 22 22 22 23 26 26 25 26 24 21 20 20 20 18 18 17 15 14 13 13 14 17 17 16 15 16 16 16 16 15 16 17 16 16 16 14 12 11 11 12 12 10 10 12 12 11 9 8 6 5 4 4 4 4 5 7 8 7 6 4 4 2 2 2 2 4 8 8 11 12 10 10 10 10 9 9 9 10 10 10 11 11 11 11
20 22 21 22 23 24 25 25 26 24 21 20 20 19 18 18 17 16 14 14 13 14 16 17 17 15 15 16 16 17 16 17 19 18 17 16 14 12 11 10 12 11 10 11 12 12 10 9 8 6 5 4 4 4 5 6 8 8 7 5 4 3 1 2 4 3 6 9 9 10 11 10 10 10 10 10 10 10 10 10 10 10 10 10 10
19 21 20 22 23 22 22 24 26 25 21 20 19 20 19 18 18 16 15 14 14 14 15 17 17 16 15 16 16 16 17 18 20 19 17 16 13 12 11 10 12 11 11 12 13 11 10 9 8 7 5 5 5 5 6 7 8 8 7 5 4 3 1 4 7 5 7 9 10 11 10 9 10 11 11 11 11 11 11 10 9 9 9 9 9
19 20 20 22 23 22 20 21 24 23 20 20 19 19 19 18 17 17 16 14 14 14 14 16 17 16 15 16 15 15 17 19 20 18 16 15 13 12 11 11 12 11 11 13 12 11 10 9 8 7 6 5 5 5 6 8 9 8 6 5 3 3 1 5 6 8 6 7 11 11 9 10 11 11 11 11 11 11 10 9 9 8 8 9 9
18 18 21 23 22 22 20 20 22 22 19 19 19 20 19 18 17 17 16 15 15 14 14 15 16 16 15 16 15 15 16 18 19 17 15 14 13 12 11 12 12 11 12 13 12 12 10 9 9 8 6 5 5 6 7 8 9 8 6 5 3 3 2 6 6 7 7 9 11 9 10 11 11 12 11 11 10 10 9 8 8 8 9 9 8
17 17 20 22 22 22 21 20 21 21 20 18 18 20 20 18 18 17 16 15 15 14 13 13 15 15 15 16 16 14 14 14 16 15 14 13 12 11 11 13 13 11 12 13 12 12 11 10 9 8 7 6 6 6 7 8 9 8 7 5 4 2 3 6 7 6 8 10 9 9 10 11 12 11 10 10 9 8 8 7 7 7 8 7 6
17 17 19 21 22 22 22 22 21 22 21 19 18 19 20 18 18 17 16 15 15 15 13 13 13 14 14 15 16 14 13 13 13 14 13 12 12 12 11 12 13 11 12 13 13 12 11 10 9 8 7 6 6 6 7 8 8 8 8 6 5 1 4 6 8 8 8 10 10 10 10 11 11 10 10 9 8 8 7 6 5 6 7 7 6
18 18 19 21 21 21 22 22 22 22 21 20 19 18 20 18 17 17 16 15 16 15 13 13 12 12 13 15 16 15 15 14 14 14 13 12 12 14 12 11 13 12 12 13 13 12 12 11 10 9 8 7 6 6 7 8 8 8 8 6 4 2 5 7 8 8 9 11 11 10 10 10 10 9 9 8 8 7 6 6 5 6 7 7 6
19 19 20 21 21 21 22 21 22 24 21 20 20 19 19 18 18 18 16 15 16 15 14 14 13 13 13 14 16 15 15 14 15 15 13 14 13 14 12 11 12 12 13 14 14 13 12 11 10 9 8 8 7 8 8 8 8 8 8 5 4 3 7 7 8 10 10 10 10 10 10 9 9 8 8 8 7 6 5 5 5 6 7 6 6
20 19 20 21 21 21 22 22 22 24 22 20 21 20 20 19 19 19 18 17 16 16 16 15 14 14 13 14 15 15 15 14 15 15 13 14 14 14 13 11 11 12 13 14 14 14 12 11 10 10 9 9 10 10 8 8 8 8 9 6 3 5 7 5 9 10 9 9 9 9 9 8 7 6 6 7 6 4 4 4 6 6 6 6 7
19 19 20 20 20 21 22 22 23 24 22 20 20 20 21 20 20 21 19 18 18 17 16 15 14 15 14 14 14 15 15 14 15 16 14 15 15 14 13 12 11 12 14 13 12 13 13 12 11 11 11 11 12 11 8 8 8 8 8 5 3 4 6 5 10 11 9 9 8 8 8 7 6 6 6 5 4 3 4 5 6 5 6 7 8
18 19 20 20 20 21 22 21 22 23 22 21 19 20 21 19 19 20 19 18 19 17 17 15 15 15 15 14 14 14 15 14 15 16 15 16 15 15 15 14 13 13 14 14 13 13 13 13 13 13 13 13 12 10 8 8 8 8 6 4 3 4 8 8 9 11 11 9 8 8 7 7 6 6 5 4 3 3 5 5 5 6 7 8 9
18 18 20 21 20 21 21 21 22 23 22 20 18 19 20 18 18 19 18 18 18 17 16 15 14 16 16 15 14 15 15 14 16 16 16 16 15 15 15 15 14 14 15 15 14 14 14 14 14 13 13 12 11 10 9 8 8 7 5 4 3 3 9 12 9 11 11 9 8 7 7 7 8 7 5 5 4 3 4 5 6 7 9 9 9
18 19 20 20 21 22 22 22 22 22 22 21 19 19 18 17 18 18 17 17 17 17 15 15 14 15 16 15 15 15 15 15 16 16 15 15 14 14 15 15 14 14 15 15 14 13 13 13 13 12 12 11 11 10 9 9 9 7 5 4 4 3 7 14 12 11 12 10 8 7 7 8 8 8 6 5 3 4 5 7 8 9 10 10 9
17 18 19 20 22 23 23 23 22 22 22 21 20 19 18 18 17 17 16 16 17 16 15 14 14 15 16 15 15 15 15 15 15 16 15 14 14 13 13 14 13 13 14 14 13 13 13 12 12 11 11 12 11 10 9 9 9 7 5 4 3 1 4 11 13 13 12 11 10 8 8 8 7 6 5 4 4 6 8 9 9 10 10 9 9
18 18 18 20 22 23 23 23 23 23 23 21 20 19 18 18 18 17 16 16 16 15 15 14 14 15 16 16 16 15 15 14 15 15 14 14 13 13 12 12 13 12 13 13 12 13 13 12 12 12 12 12 11 10 10 9 9 7 5 5 4 3 3 6 12 14 12 12 11 8 7 6 5 5 5 6 7 9 10 10 10 9 9 9 9
18 19 19 20 22 23 22 23 24 23 22 22 20 19 19 18 18 17 17 17 16 15 15 14 13 14 15 16 16 15 15 14 14 14 13 13 13 13 12 12 13 11 12 13 11 11 11 11 11 11 12 11 10 9 9 9 6 5 4 4 5 5 5 5 9 12 10 10 11 10 8 6 5 5 7 8 9 10 10 10 10 10 10 9 9
19 19 19 20 22 23 22 22 25 24 22 22 20 19 19 18 18 18 17 17 16 16 16 14 14 14 15 17 16 16 15 14 14 13 13 13 13 13 12 12 12 11 12 11 11 11 10 10 10 10 10 10 9 8 8 7 2 5 5 5 6 7 6 5 7 10 9 9 11 12 10 7 5 5 7 8 9 10 10 10 9 9 9 9 9
18 19 19 21 23 23 22 22 25 26 24 22 21 20 19 19 19 19 18 17 17 17 15 14 14 13 15 17 16 16 15 13 14 13 12 12 12 12 12 12 11 11 11 10 10 10 9 10 9 9 9 9 9 7 7 7 3 4 6 6 8 9 7 6 6 7 7 7 8 11 12 9 7 5 6 7 9 10 9 9 9 9 8 8 7
18 19 20 22 24 23 23 22 24 26 25 23 22 21 20 19 19 19 18 17 17 17 15 14 14 14 15 16 16 16 15 13 14 14 12 12 12 12 12 11 11 11 11 10 10 10 10 9 10 10 9 10 9 7 8 8 5 5 7 8 9 9 8 8 7 5 6 5 5 8 9 8 8 8 6 7 8 9 9 9 8 8 7 7 6
18 21 21 22 23 23 23 24 24 24 24 24 22 21 20 19 19 19 18 18 17 17 16 14 14 14 15 16 16 16 15 14 14 14 13 12 12 12 12 11 11 11 11 11 10 10 10 10 10 10 10 11 8 6 8 9 7 7 9 10 10 10 8 8 7 5 5 4 4 5 3 2 4 6 7 7 8 9 9 9 8 8 7 6 5
20 22 22 23 23 23 23 24 25 25 23 24 23 21 21 20 20 19 18 18 17 17 16 15 15 15 15 16 17 16 15 14 14 14 13 13 12 12 12 11 11 12 10 11 11 10 10 10 10 10 11 10 5 7 9 9 8 7 8 9 8 9 7 7 6 4 4 3 5 5 3 2 3 6 8 7 8 8 9 9 8 7 6 5 4
22 24 24 24 23 23 23 23 25 26 24 24 23 22 21 20 20 19 18 19 19 17 16 15 15 16 16 16 17 17 16 15 14 14 14 13 12 12 12 11 11 11 10 11 11 10 10 10 10 10 13 9 6 11 10 8 9 8 7 7 7 7 7 7 4 3 4 3 4 4 4 4 4 6 7 7 8 8 9 9 9 8 8 8 6
22 23 25 25 24 23 22 22 24 26 25 25 24 22 21 20 19 19 19 19 19 17 16 15 16 16 16 17 18 17 16 16 15 15 14 14 13 11 11 12 11 11 10 11 11 10 10 10 10 10 13 8 7 13 11 8 9 8 8 8 7 6 6 6 4 3 3 3 4 4 5 5 5 6 7 7 8 9 9 9 9 9 9 10 8
21 21 24 24 24 23 22 22 24 25 25 24 24 22 21 21 20 19 19 20 20 18 16 16 16 17 17 17 19 18 16 17 16 15 15 14 13 12 11 12 12 11 11 11 10 11 10 9 10 10 11 7 7 11 12 11 9 8 8 7 7 6 6 5 4 3 3 4 4 4 5 5 5 6 7 7 8 9 9 8 9 9 8 8 9
22 22 23 23 24 24 23 23 24 26 26 25 24 24 22 22 22 21 21 21 20 19 17 17 16 17 18 18 19 18 17 18 17 16 15 14 14 13 12 12 12 11 11 11 11 11 10 10 10 10 10 8 8 9 11 11 10 9 7 7 6 6 6 5 4 4 3 5 5 4 5 5 6 7 7 7 8 8 9 9 9 9 8 6 6
22 23 24 25 25 25 24 25 25 26 26 26 26 25 24 24 23 22 22 21 21 19 18 18 17 17 18 18 19 19 18 18 18 16 16 15 14 13 13 12 12 12 12 12 11 10 11 12 11 11 11 10 9 10 12 12 11 9 7 7 7 6 6 4 4 5 5 5 6 5 5 6 7 7 7 8 7 8 9 9 8 8 9 7 5
22 24 26 26 26 26 25 25 25 26 27 27 27 26 26 23 22 22 21 21 21 20 19 19 17 17 19 19 20 20 18 18 18 17 16 15 14 14 14 13 12 13 12 11 11 10 11 13 12 11 11 10 9 10 15 15 12 11 10 9 7 6 6 4 5 7 7 7 7 6 6 7 7 8 8 7 8 8 9 9 8 7 8 7 7
23 24 26 26 26 26 26 25 26 29 29 28 27 26 25 23 21 21 20 19 19 19 19 19 18 17 19 20 20 20 19 18 18 17 16 16 15 14 14 14 13 13 12 11 11 11 11 12 12 12 11 10 8 9 15 15 11 11 12 8 5 5 5 7 10 11 10 9 8 8 7 7 8 9 8 7 8 8 9 9 8 7 7 6 6
23 25 26 26 26 27 28 27 27 29 29 29 28 26 24 23 21 20 19 18 18 18 18 19 20 18 19 20 20 21 20 19 19 18 17 16 16 15 15 14 14 13 12 11 11 11 12 12 12 12 11 11 10 10 14 14 10 10 9 5 5 5 4 8 12 11 11 11 10 10 9 8 9 9 9 8 9 9 8 9 8 8 7 6 5
25 26 27 28 28 29 30 28 28 27 27 29 29 26 24 23 21 19 20 19 18 20 19 19 21 20 20 21 21 21 21 20 19 19 17 16 16 16 15 15 14 13 13 12 11 11 12 13 13 13 12 12 10 11 12 13 12 10 8 4 4 3 3 6 10 8 10 13 12 12 11 10 10 10 10 9 9 9 8 9 9 8 8 7 6
26 28 29 29 28 29 31 30 29 27 27 29 29 26 25 25 23 22 23 21 20 21 21 20 21 22 21 21 21 21 21 21 20 20 18 17 17 17 17 16 15 14 13 12 11 11 13 14 14 14 14 13 11 10 11 12 12 11 11 6 2 2 0 6 7 5 8 11 11 12 12 11 11 11 11 10 10 10 9 10 10 9 8 8 7
26 28 28 29 28 28 30 31 30 27 27 30 29 26 25 26 26 25 24 22 20 20 21 21 20 21 21 21 21 21 21 22 20 20 19 18 17 17 18 16 15 14 14 13 12 12 13 14 14 14 14 13 12 10 10 11 11 11 12 10 7 6 3 4 4 2 5 8 10 12 12 12 12 11 12 11 11 11 10 10 10 10 10 9 8
24 26 26 27 27 27 30 30 28 27 27 29 29 27 25 26 27 25 24 23 21 19 20 21 20 20 22 22 21 21 21 22 21 20 20 19 18 17 18 17 16 15 14 14 13 12 14 14 14 15 14 13 14 12 10 10 11 10 11 11 10 9 8 8 8 6 3 4 7 10 11 12 12 12 12 11 12 12 12 11 10 10 11 10 9
24 26 26 27 27 28 32 31 29 28 28 30 30 27 25 25 25 25 24 23 22 20 20 21 20 21 22 22 21 21 22 22 21 21 20 20 19 18 18 18 17 15 14 14 13 13 15 15 15 16 16 14 14 14 11 10 11 10 10 11 10 10 10 10 10 9 7 6 5 6 10 11 11 13 14 12 12 12 13 13 11 11 11 10 10
25 26 26 27 27 27 30 32 32 31 31 32 31 29 27 25 25 25 24 23 23 22 22 22 22 22 23 22 21 21 22 23 22 23 22 21 21 19 18 18 18 16 15 14 14 15 16 16 16 17 16 14 13 13 12 11 11 11 10 11 10 10 10 10 11 11 9 8 7 6 10 12 12 14 17 15 13 12 12 13 12 12 11 10 10
22 23 25 27 28 27 28 31 32 32 31 31 30 29 29 27 26 26 25 24 23 23 24 24 24 24 24 24 23 22 22 23 23 23 23 22 21 21 19 18 18 17 16 15 14 15 16 17 17 17 17 15 14 13 13 13 13 13 12 12 12 12 11 10 11 11 10 9 7 6 9 13 14 13 16 16 14 12 12 13 13 13 11 11 10
Wind_Direction
148 145 151 167 165 163 164 166 164 155 154 150 151 149 152 152 151 152 152 154 157 163 162 160 153 150 145 136 132 128 125 121 119 123 121 116 115 114 114 115 112 110 113 114 115 115 112 109 107 105 102 99 96 93 90 87 85 84 84 84 83 84 87 86 83 81 81 83 83 81 79 77 71 72 78 81 80 82 82 75 68 64 62 60 59
148 144 150 165 163 163 163 166 164 155 154 150 153 151 149 150 150 151 153 153 154 159 159 159 156 156 150 138 135 132 130 127 126 129 127 122 117 114 114 117 117 114 116 117 118 116 113 111 109 107 103 99 96 94 92 89 87 86 85 85 85 86 89 87 83 81 82 83 83 81 78 76 74 71 72 78 81 82 83 78 71 66 65 60 59
143 143 148 162 163 163 164 166 164 157 155 153 154 152 148 148 148 149 151 151 152 158 158 160 158 157 151 139 138 135 133 131 131 134 131 128 124 119 119 120 120 119 118 116 117 116 115 114 110 106 102 98 96 95 95 93 90 89 88 88 87 87 89 85 81 81 85 86 83 77 72 71 71 72 69 69 73 74 74 73 69 64 64 62 59
141 143 148 160 162 163 165 166 165 158 157 156 155 153 150 148 148 146 147 148 150 156 155 157 155 154 150 142 140 136 133 133 133 135 132 130 129 125 123 122 121 120 119 117 118 120 119 115 111 107 102 97 94 94 94 96 96 93 92 92 90 90 90 86 83 80 81 84 80 74 72 75 73 73 72 67 67 67 67 65 63 58 54 54 57
140 144 148 156 158 163 165 166 167 159 158 160 158 155 151 151 153 150 150 148 149 154 151 153 155 152 150 146 142 140 139 137 136 137 132 132 136 131 126 125 123 121 120 120 122 125 123 117 113 109 103 97 93 91 89 94 100 101 98 96 96 94 92 88 85 79 75 73 73 78 78 81 78 74 73 70 67 66 65 65 64 57 49 43 45
141 145 148 153 155 163 166 166 168 161 159 163 162 157 154 155 155 155 158 157 156 158 155 155 157 153 153 150 145 148 148 145 141 138 135 137 143 134 128 128 126 125 123 122 124 128 126 121 117 111 104 98 92 87 83 87 98 109 106 101 99 98 93 87 85 79 76 72 73 85 79 80 81 76 74 71 67 64 62 66 71 63 56 48 42
142 144 148 153 155 164 167 166 167 164 160 163 165 160 159 158 158 158 160 164 164 163 162 159 157 157 156 152 150 151 152 152 144 139 141 140 142 135 133 133 131 128 127 126 127 131 130 125 120 114 107 99 92 83 74 72 92 117 117 109 103 101 94 86 84 79 74 68 74 84 76 77 80 76 74 71 65 63 60 58 64 66 69 62 50
142 146 150 152 158 167 167 166 166 164 161 163 166 162 162 161 161 162 162 166 165 167 170 166 157 158 159 153 152 153 154 154 144 141 143 139 139 139 138 136 134 131 130 130 129 134 134 130 125 121 113 104 93 81 66 58 83 125 131 120 110 105 96 89 83 76 72 67 76 83 78 78 79 75 70 70 63 62 61 52 49 54 69 66 55
143 147 150 151 162 170 166 165 165 162 161 164 166 163 164 163 163 164 164 164 163 168 172 170 158 155 162 157 153 156 158 154 146 143 138 139 144 143 142 139 138 135 133 132 133 143 141 135 132 126 120 110 100 87 69 50 80 132 142 132 121 108 95 93 81 68 67 68 75 76 76 79 79 75 69 69 64 61 64 60 54 50 56 59 57
142 146 147 152 165 170 166 165 163 160 161 165 166 165 166 163 162 162 162 160 156 157 163 164 157 152 157 155 154 159 160 156 149 143 139 142 147 146 147 143 140 140 138 137 144 154 146 140 140 133 124 114 107 96 81 59 98 140 147 140 127 112 96 92 79 59 59 73 79 80 80 80 80 76 70 70 65 64 68 64 62 59 57 55 56
140 144 143 152 166 170 165 165 162 158 162 167 168 167 165 162 160 160 159 157 149 144 151 155 152 151 154 154 157 158 155 156 149 143 143 145 147 149 150 145 143 143 142 141 149 156 148 146 147 139 128 119 109 100 93 85 124 145 148 141 125 109 96 88 82 59 59 76 84 87 85 82 82 77 70 69 64 62 64 61 60 61 60 57 56
141 141 144 156 167 169 165 164 162 159 163 167 170 169 165 162 159 158 156 153 146 142 145 150 152 152 155 155 159 160 154 153 149 144 147 147 148 150 151 150 147 145 145 146 149 154 152 153 152 145 134 123 115 110 109 115 139 147 147 139 115 103 97 80 86 77 79 86 87 85 81 82 81 75 72 69 65 63 63 63 62 62 60 57 56
141 138 147 159 165 168 166 164 161 159 163 167 171 171 166 162 159 156 155 150 145 145 145 148 153 154 155 157 161 168 166 155 151 150 149 151 150 150 152 153 151 147 148 154 157 156 155 157 157 150 139 131 126 125 128 138 146 147 148 137 116 111 101 68 65 142 112 91 86 86 81 83 81 76 76 73 69 70 69 67 65 64 64 61 60
140 138 146 155 160 167 166 163 161 161 164 168 172 174 167 160 158 155 153 150 148 149 148 148 152 155 157 161 168 172 170 158 155 154 152 153 153 152 154 155 155 152 154 164 161 156 158 161 161 154 145 139 133 139 145 153 152 151 151 137 122 119 100 38 12 275 114 89 87 88 84 86 83 80 80 80 78 77 76 73 71 70 70 68 64
140 139 144 150 158 166 165 162 162 162 165 168 170 173 167 159 156 155 153 150 152 154 154 152 151 154 158 164 170 170 169 160 156 157 156 159 160 155 156 159 161 159 159 164 159 158 163 164 163 161 154 142 138 147 150 157 159 157 154 141 135 140 142 310 308 307 89 87 86 85 84 86 83 84 85 86 87 83 82 79 77 77 74 69 64
138 138 142 148 156 163 163 162 163 164 166 169 169 170 167 160 158 157 156 153 152 157 159 156 153 158 162 166 168 167 171 164 158 161 165 168 167 161 161 166 164 163 162 159 160 164 166 165 167 165 159 151 144 151 157 163 165 162 162 149 141 165 200 321 300 309 81 78 77 85 84 86 83 86 92 94 94 89 87 84 80 77 72 64 57
137 137 140 147 153 160 162 162 165 166 167 171 171 170 168 164 162 160 162 161 155 156 161 159 157 163 165 165 166 168 174 170 166 167 170 174 174 172 174 172 165 163 161 160 164 168 169 169 169 168 167 158 151 156 164 167 170 171 169 156 139 149 107 346 334 9 69 74 80 89 89 91 89 92 98 100 98 95 90 85 81 76 68 59 51
138 140 142 148 151 157 162 164 166 165 166 172 172 171 171 169 166 163 166 167 161 158 161 162 161 165 166 165 165 167 171 174 174 173 172 176 178 180 185 179 168 166 163 163 169 172 173 173 170 173 172 164 159 159 169 174 176 180 177 169 142 127 91 1 25 60 66 77 84 88 92 96 96 99 105 104 101 98 94 89 84 77 66 57 48
142 145 144 149 153 156 161 164 165 165 168 172 172 172 173 173 170 166 169 172 167 162 163 165 165 168 169 167 167 166 166 170 176 178 176 178 180 179 188 186 175 171 168 167 172 175 176 177 175 174 175 173 166 164 174 179 182 187 188 182 149 132 57 22 64 80 67 75 80 85 93 99 103 106 109 107 104 101 99 97 89 78 67 57 43
146 148 148 151 155 156 159 164 164 167 169 171 172 174 174 175 174 170 171 175 173 167 167 169 168 170 171 171 173 171 167 169 175 178 179 180 177 177 188 189 181 175 173 171 174 179 179 180 180 177 179 180 174 175 179 184 189 193 197 190 168 156 37 56 92 89 78 83 86 93 96 102 106 108 110 109 107 106 105 100 88 75 64 50 31
152 153 153 153 158 158 160 164 166 168 170 172 170 172 176 175 177 175 173 178 177 172 172 171 168 171 173 177 178 176 177 178 179 180 182 182 177 181 191 192 186 181 178 177 177 180 182 183 184 183 183 185 187 187 188 192 191 195 203 188 181 204 43 91 107 94 93 95 97 100 102 106 107 109 111 109 109 107 103 93 82 67 46 27 16
158 158 158 158 162 163 164 165 167 169 169 173 171 171 175 173 179 178 175 181 179 174 175 173 170 170 173 180 181 183 186 185 186 187 185 185 184 188 193 197 194 189 184 182 181 183 185 186 187 188 187 191 192 194 199 202 197 199 196 176 210 257 80 109 118 105 99 97 100 106 108 108 108 112 109 108 111 107 98 89 74 46 23 16 14
162 162 162 164 166 166 168 167 169 170 168 175 173 169 170 173 179 178 177 183 180 176 178 176 174 174 173 179 183 188 191 188 190 191 187 185 193 197 194 200 202 200 194 187 186 187 189 190 191 190 192 192 192 200 200 202 204 200 187 183 244 183 110 104 106 100 95 97 104 109 109 107 108 111 109 111 111 103 92 77 45 19 14 23 29
164 163 164 168 167 167 171 170 170 170 170 174 172 169 168 174 180 178 177 180 180 180 182 180 182 180 174 177 183 189 192 190 189 191 189 186 195 198 194 200 204 208 205 193 191 193 193 196 197 195 195 200 209 216 206 198 202 200 201 215 238 137 114 103 106 101 100 103 107 110 108 106 109 112 115 118 114 100 76 39 11 11 25 41 48
162 162 163 169 170 167 171 173 170 170 174 172 173 173 170 175 182 181 178 179 180 182 184 185 188 184 176 179 183 189 192 190 187 189 190 185 189 192 194 200 201 209 209 198 197 200 199 200 204 203 206 214 224 229 216 204 206 212 218 221 207 133 110 125 124 114 112 113 116 116 110 108 107 108 118 123 112 78 35 14 11 28 50 58 60
164 164 164 170 173 169 171 175 169 170 176 173 174 175 173 178 183 182 179 181 181 179 187 189 190 187 182 184 186 189 192 190 185 187 188 184 186 191 196 199 198 204 205 199 200 202 203 206 207 208 215 222 228 233 226 219 221 225 223 210 200 124 107 126 130 119 121 121 123 121 114 115 110 111 118 114 96 41 16 22 41 60 68 68 65
168 170 168 168 173 172 174 177 169 172 179 174 176 175 176 182 184 184 183 183 181 179 189 191 189 190 188 188 189 189 192 192 186 188 189 186 190 193 195 198 199 202 199 199 203 201 204 211 210 210 219 226 228 230 229 227 233 234 224 202 183 127 114 124 126 117 119 123 125 126 124 120 117 120 117 104 90 34 34 60 71 75 74 73 70
171 173 170 166 172 174 175 179 172 174 179 176 179 177 179 184 184 186 186 184 181 181 189 192 189 191 192 192 192 190 193 192 186 189 190 189 193 192 194 197 200 201 194 198 205 202 206 213 215 215 220 229 228 224 225 224 230 236 224 187 159 159 122 119 122 114 111 116 118 122 125 122 125 126 118 111 92 64 78 88 88 86 85 83 80
173 173 170 168 173 175 177 180 174 176 180 179 182 181 181 185 184 186 187 184 182 183 189 192 190 191 193 194 195 194 195 192 186 188 187 187 192 191 193 194 198 200 193 198 206 202 207 213 215 219 222 229 225 217 224 223 222 227 211 184 154 133 110 113 125 123 114 115 112 114 122 126 136 132 119 112 96 95 100 99 98 96 92 88 86
171 170 168 168 171 175 180 181 176 177 180 182 184 183 183 184 184 186 186 185 186 187 190 193 191 193 194 195 197 197 197 193 187 185 184 185 187 188 192 191 196 198 192 199 204 200 206 211 214 219 221 227 223 213 221 224 219 218 199 166 134 121 139 127 125 127 125 119 110 111 122 128 131 125 119 114 107 108 107 104 101 99 95 91 88
171 166 165 167 168 173 180 181 177 178 181 184 186 184 184 187 186 187 186 186 188 189 193 193 192 195 195 194 196 198 198 194 188 183 182 183 182 186 190 189 193 194 193 197 200 199 205 211 214 218 222 225 222 212 215 226 216 187 176 141 137 155 160 152 137 133 132 124 120 121 120 120 121 121 123 118 114 112 110 108 104 102 100 94 89
175 169 165 166 168 173 179 180 176 179 184 184 187 186 185 188 188 189 189 188 189 191 195 194 194 197 192 191 193 196 197 192 187 183 180 182 182 186 188 189 191 190 192 195 197 200 206 213 216 218 226 228 221 211 209 218 168 143 161 138 159 175 149 144 149 140 136 129 134 136 123 115 121 130 130 123 119 117 115 111 107 106 103 97 93
178 174 168 165 168 171 176 180 175 177 186 186 186 188 186 186 188 191 190 189 191 194 197 195 196 195 187 188 190 192 194 190 185 183 181 182 182 185 187 189 189 187 190 192 193 199 208 213 215 219 224 227 219 205 206 213 185 173 182 158 164 170 152 153 157 144 139 128 136 143 133 125 122 125 133 127 124 123 121 118 114 112 109 103 99
177 177 173 167 167 170 173 180 176 173 183 187 187 188 188 186 188 192 190 187 192 196 198 197 197 192 185 185 187 189 190 187 182 182 183 181 181 184 186 188 187 186 187 189 193 199 209 210 213 219 216 220 216 193 208 218 190 175 185 181 172 166 162 167 166 149 133 115 128 142 139 134 120 120 132 130 127 129 128 127 125 122 119 115 110
175 176 177 168 167 170 171 178 180 177 182 187 188 188 188 188 190 191 187 186 191 196 198 198 197 190 184 183 184 186 185 185 182 182 184 181 182 184 187 188 186 187 188 192 196 200 210 211 212 217 213 220 216 181 202 209 178 164 185 198 182 165 155 154 160 150 129 118 122 119 118 117 108 125 141 139 135 137 137 137 139 137 132 125 122
177 175 175 170 169 170 170 176 181 181 184 188 189 188 188 190 192 191 188 189 192 196 198 198 197 189 183 181 181 182 182 183 182 184 188 186 187 188 189 188 186 190 193 196 200 203 210 213 214 220 221 219 188 168 194 191 171 167 187 195 173 157 151 155 167 149 122 111 112 110 115 117 116 140 149 148 147 152 155 152 151 150 146 140 137
178 174 173 170 169 171 172 176 178 180 183 189 190 188 189 191 193 193 191 192 194 196 196 195 196 190 184 181 180 181 184 185 187 192 197 195 194 193 190 187 189 194 197 199 203 208 210 212 216 221 227 225 162 172 185 169 164 164 178 178 156 153 156 160 159 130 116 106 116 126 132 131 136 152 160 163 159 163 173 174 170 170 174 168 151
177 174 174 171 169 170 173 176 177 180 182 187 190 188 190 191 193 194 191 193 197 198 195 192 195 192 186 183 181 182 187 191 193 199 203 201 198 195 190 187 190 196 199 203 206 211 211 213 218 217 224 223 162 170 172 158 165 167 172 165 147 152 157 156 151 144 143 135 144 143 135 141 156 168 175 175 167 166 177 191 195 195 200 189 169
175 176 174 172 171 170 173 178 180 180 180 184 188 189 190 192 195 194 191 193 198 200 196 192 193 194 189 186 184 184 189 194 195 201 206 205 201 195 189 187 192 197 200 205 208 212 210 209 215 216 218 202 160 167 164 158 165 164 164 156 149 157 158 160 164 172 167 153 158 154 149 155 162 172 180 181 178 174 177 190 199 197 205 205 192
172 174 176 175 174 174 176 180 181 181 179 181 186 189 190 193 196 195 192 194 198 199 198 194 192 195 193 187 186 185 190 195 195 202 207 207 204 197 189 189 195 198 201 206 208 209 207 205 208 213 213 190 166 172 165 155 149 141 143 149 157 167 173 178 180 193 191 173 176 173 168 168 169 177 185 187 185 184 184 190 196 192 189 205 214
170 173 179 180 178 178 177 179 181 181 181 182 186 189 191 192 195 196 195 195 197 196 196 195 193 195 194 189 188 187 190 195 196 201 207 207 206 203 196 193 198 200 202 207 211 210 206 206 208 210 211 193 172 167 162 153 144 142 147 157 164 175 188 191 181 203 212 190 188 187 180 177 179 183 186 190 189 189 192 195 201 195 186 194 202
173 178 183 183 180 179 177 178 181 183 184 182 184 190 194 194 195 196 196 196 196 194 193 194 193 194 194 191 190 189 190 194 197 201 208 208 205 204 202 199 200 202 205 208 213 212 208 209 209 210 210 197 179 166 164 163 162 166 165 165 173 184 201 214 208 215 218 206 196 190 188 188 191 188 186 191 193 195 196 196 199 196 193 197 192
175 184 187 184 182 182 182 182 183 187 187 184 182 187 194 197 196 196 196 195 195 193 192 190 191 193 194 193 191 191 191 194 197 201 206 209 206 204 205 203 201 203 205 207 211 210 208 209 209 210 208 198 191 176 175 181 182 173 168 171 180 184 206 217 219 220 214 210 204 197 197 201 201 191 188 197 197 199 197 192 194 194 198 205 196
176 185 189 187 185 186 186 186 187 189 190 189 185 186 191 195 196 195 196 196 193 192 193 190 189 192 194 195 194 193 193 194 197 200 203 207 207 206 205 204 203 203 205 206 208 207 207 207 208 213 210 202 197 186 187 198 199 180 178 188 176 193 235 206 202 211 207 208 208 203 201 204 207 194 190 204 203 202 201 191 190 193 198 208 210
178 184 188 188 187 188 187 187 189 190 192 191 187 185 187 188 190 192 194 197 194 189 192 191 189 192 196 198 198 194 193 195 197 199 203 206 207 208 207 205 202 203 207 208 207 205 206 206 206 212 212 209 202 192 194 204 209 202 205 209 165 216 275 168 177 197 200 207 210 204 203 204 209 199 195 213 209 200 203 197 192 192 197 208 212
180 184 187 187 188 188 186 186 189 193 195 191 186 186 183 182 185 189 192 196 196 190 190 190 188 192 197 200 201 197 195 197 197 199 203 205 207 208 207 207 204 203 206 208 206 204 205 206 206 210 212 213 209 200 199 202 211 217 221 236 234 244 256 148 170 185 189 209 213 203 204 205 209 206 203 215 213 203 205 202 195 196 204 210 214
184 183 185 186 188 188 185 186 189 192 197 193 187 185 182 182 185 189 193 195 197 193 189 190 190 193 197 198 200 199 197 198 198 200 204 205 207 208 207 208 207 204 203 205 206 205 207 206 206 209 210 212 211 209 207 201 207 217 221 234 239 235 236 201 226 216 178 206 213 206 207 206 208 214 213 216 216 207 204 205 201 203 210 211 213
190 181 182 184 185 185 183 185 188 191 197 195 188 186 183 184 187 191 194 196 200 196 188 188 191 194 197 198 198 197 197 198 198 201 203 204 206 207 207 208 209 206 201 203 206 206 207 205 204 207 208 209 210 214 216 204 205 212 213 222 228 232 238 241 258 269 243 225 210 203 206 206 207 214 219 224 222 210 201 206 212 212 211 210 213
199 185 182 182 182 183 182 182 184 189 198 196 189 188 187 187 190 192 195 196 198 197 189 188 190 194 199 198 195 196 199 200 201 204 205 205 206 208 207 209 209 206 203 203 207 207 206 204 203 206 207 209 210 215 220 211 209 213 208 213 222 228 233 237 245 251 256 257 232 194 190 198 209 214 217 223 226 217 203 206 220 222 211 207 212
203 189 182 182 183 184 183 182 183 189 197 195 188 189 191 192 193 193 195 194 194 194 190 189 191 194 198 194 191 197 201 202 204 206 206 206 207 207 208 210 209 207 205 205 205 206 207 204 203 205 206 208 209 214 219 217 216 217 213 212 216 220 225 230 232 233 239 248 251 223 195 194 207 210 206 210 218 214 204 206 218 224 214 206 213
201 191 180 181 182 182 183 184 186 189 194 192 188 191 194 197 198 194 193 193 193 192 189 188 190 194 197 194 193 198 202 202 205 207 208 208 208 208 208 210 210 207 206 206 206 206 207 205 203 205 207 207 209 213 218 220 221 219 217 216 215 215 217 221 225 224 225 234 241 246 221 205 212 211 196 199 209 207 208 211 212 219 217 209 214